User: anonymous   Login
Location: Caltech
(34.1382°N, 118.1253°W)
Time: 04:46:48
(UTC-07:00)
Language:

Saudisat 1A - Orbit

View from above orbital plane
View from above orbital plane
View from above satellite
View from above satellite

Ground track
Ground track

The orbit data is extracted from the following two-line orbital elements,

1 26546U 00057B   15184.77135147  .00000491  00000-0  67215-4 0  9998
2 26546 064.5554 050.1655 0032604 311.9379 047.8952 14.89587048800203
Epoch (UTC): 03 July 2015 18:30:44
Eccentricity: 0.0032604
inclination: 64.5554°
perigee height: 576 km
apogee height: 622 km
right ascension of ascending node: 50.1655°
argument of perigee: 311.9379°
revolutions per day: 14.89587048
mean anomaly at epoch: 47.8952°
orbit number at epoch: 80020

The dashed part of the orbit path shows where the satellite is in the earth's shadow,  

DLR